• In Hungary
  • List of Countries
  • For 7 days
  • Water Temperature
  • Satellite Maps
  • Weather Map
  • News
  • Weather Widgets
  • user-avatar
    Login

    Hourly Weather Tiwi

    Today, 20 July, Friday

    Time Temperature Precipitation Wind Pressure Humidity
    00:00 +35°C° 0 mm 4 mps 740 mmHg 45%
    01:00 +35°C° 0 mm 4 mps 740 mmHg 43%
    02:00 +35°C° 0 mm 3 mps 740 mmHg 39%
    03:00 +34°C° 0 mm 3 mps 740 mmHg 36%
    04:00 +34°C° 0 mm 3 mps 740 mmHg 33%
    05:00 +35°C° 0 mm 3 mps 740 mmHg 28%
    06:00 +36°C° 0 mm 3 mps 740 mmHg 23%
    07:00 +37°C° 0 mm 3 mps 740 mmHg 19%
    08:00 +39°C° 0 mm 3 mps 740 mmHg 17%
    09:00 +42°C° 0 mm 4 mps 740 mmHg 14%
    10:00 +44°C° 0 mm 4 mps 740 mmHg 11%
    11:00 +45°C° 0 mm 4 mps 740 mmHg 11%
    12:00 +47°C° 0 mm 4 mps 740 mmHg 11%
    13:00 +48°C° 0 mm 5 mps 740 mmHg 11%
    14:00 +48°C° 0 mm 5 mps 740 mmHg 11%
    15:00 +48°C° 0 mm 5 mps 739 mmHg 12%
    16:00 +47°C° 0 mm 5 mps 739 mmHg 12%
    17:00 +46°C° 0 mm 5 mps 739 mmHg 15%
    18:00 +43°C° 0 mm 4 mps 739 mmHg 18%
    19:00 +41°C° 0 mm 4 mps 739 mmHg 21%
    20:00 +40°C° 0 mm 4 mps 739 mmHg 24%
    21:00 +37°C° 0 mm 4 mps 739 mmHg 27%
    22:00 +36°C° 0 mm 3 mps 740 mmHg 30%
    23:00 +36°C° 0 mm 3 mps 739 mmHg 28%

    Tomorrow, 21 July, Saturday

    Time Temperature Precipitation Wind Pressure Humidity
    00:00 +35°C° 0 mm 2 mps 739 mmHg 26%
    01:00 +35°C° 0 mm 2 mps 739 mmHg 24%
    02:00 +35°C° 0 mm 2 mps 739 mmHg 25%
    03:00 +34°C° 0 mm 2 mps 739 mmHg 25%
    04:00 +34°C° 0 mm 2 mps 739 mmHg 26%
    05:00 +34°C° 0 mm 1 mps 739 mmHg 23%
    06:00 +36°C° 0 mm 1 mps 739 mmHg 21%
    07:00 +39°C° 0 mm 1 mps 739 mmHg 18%
    08:00 +41°C° 0 mm 1 mps 740 mmHg 16%
    09:00 +42°C° 0 mm 2 mps 740 mmHg 13%
    10:00 +45°C° 0 mm 2 mps 740 mmHg 11%
    11:00 +46°C° 0 mm 2 mps 740 mmHg 11%
    12:00 +47°C° 0 mm 3 mps 740 mmHg 11%
    13:00 +48°C° 0 mm 3 mps 740 mmHg 11%
    14:00 +47°C° 0 mm 3 mps 739 mmHg 12%
    15:00 +47°C° 0 mm 3 mps 739 mmHg 13%
    16:00 +47°C° 0 mm 3 mps 739 mmHg 14%
    17:00 +45°C° 0 mm 3 mps 739 mmHg 17%
    18:00 +43°C° 0 mm 3 mps 739 mmHg 19%
    19:00 +41°C° 0 mm 2 mps 739 mmHg 22%
    20:00 +40°C° 0 mm 2 mps 739 mmHg 23%
    21:00 +39°C° 0 mm 2 mps 739 mmHg 25%
    22:00 +37°C° 0 mm 1 mps 740 mmHg 27%
    23:00 +37°C° 0 mm 1 mps 740 mmHg 27%

    Day after tomorrow, 22 July, Sunday

    Time Temperature Precipitation Wind Pressure Humidity
    00:00 +37°C° 0 mm 1 mps 739 mmHg 26%
    01:00 +36°C° 0 mm 1 mps 739 mmHg 26%
    02:00 +36°C° 0 mm 1 mps 739 mmHg 26%
    03:00 +35°C° 0 mm 1 mps 739 mmHg 26%
    04:00 +35°C° 0 mm 1 mps 739 mmHg 25%
    05:00 +36°C° 0 mm 1 mps 739 mmHg 24%
    06:00 +39°C° 0 mm 1 mps 739 mmHg 22%
    07:00 +40°C° 0 mm 1 mps 739 mmHg 20%
    08:00 +42°C° 0 mm 1 mps 739 mmHg 18%
    09:00 +45°C° 0 mm 2 mps 740 mmHg 15%
    10:00 +47°C° 0 mm 2 mps 740 mmHg 12%
    11:00 +48°C° 0 mm 3 mps 740 mmHg 11%
    12:00 +50°C° 0 mm 3 mps 739 mmHg 11%
    13:00 +51°C° 0 mm 4 mps 739 mmHg 10%
    14:00 +50°C° 0 mm 4 mps 739 mmHg 10%
    15:00 +50°C° 0 mm 4 mps 738 mmHg 11%
    16:00 +50°C° 0 mm 3 mps 738 mmHg 11%
    17:00 +47°C° 0 mm 3 mps 738 mmHg 14%
    18:00 +45°C° 0 mm 3 mps 738 mmHg 17%
    19:00 +43°C° 0 mm 3 mps 738 mmHg 20%
    20:00 +42°C° 0 mm 3 mps 738 mmHg 23%
    21:00 +40°C° 0 mm 3 mps 738 mmHg 26%
    22:00 +38°C° 0 mm 3 mps 739 mmHg 29%
    23:00 +38°C° 0 mm 2 mps 739 mmHg 30%

    23 July, Monday

    Time Temperature Precipitation Wind Pressure Humidity
    00:00 +37°C° 0 mm 2 mps 738 mmHg 30%
    01:00 +36°C° 0 mm 2 mps 738 mmHg 30%
    02:00 +36°C° 0 mm 2 mps 738 mmHg 30%
    03:00 +36°C° 0 mm 2 mps 738 mmHg 29%
    04:00 +35°C° 0 mm 1 mps 738 mmHg 28%
    05:00 +36°C° 0 mm 1 mps 738 mmHg 27%
    06:00 +37°C° 0 mm 1 mps 738 mmHg 25%
    07:00 +39°C° 0 mm 1 mps 738 mmHg 24%
    08:00 +41°C° 0 mm 2 mps 738 mmHg 21%
    09:00 +43°C° 0 mm 2 mps 739 mmHg 17%
    10:00 +46°C° 0 mm 2 mps 739 mmHg 14%
    11:00 +47°C° 0 mm 3 mps 738 mmHg 14%
    12:00 +48°C° 0 mm 3 mps 738 mmHg 14%
    13:00 +50°C° 0 mm 4 mps 738 mmHg 14%
    14:00 +49°C° 0 mm 4 mps 737 mmHg 16%
    15:00 +49°C° 0 mm 4 mps 737 mmHg 18%
    16:00 +48°C° 0 mm 4 mps 736 mmHg 21%
    17:00 +47°C° 0 mm 4 mps 736 mmHg 24%
    18:00 +44°C° 0 mm 4 mps 736 mmHg 27%
    19:00 +43°C° 0 mm 3 mps 736 mmHg 30%
    20:00 +40°C° 0 mm 3 mps 737 mmHg 33%
    21:00 +39°C° 0 mm 3 mps 737 mmHg 37%
    22:00 +38°C° 0 mm 3 mps 738 mmHg 41%
    23:00 +37°C° 0 mm 3 mps 737 mmHg 41%

    24 July, Tuesday

    Time Temperature Precipitation Wind Pressure Humidity
    00:00 +37°C° 0 mm 3 mps 737 mmHg 42%
    01:00 +36°C° 0 mm 3 mps 737 mmHg 43%
    02:00 +36°C° 0 mm 2 mps 737 mmHg 43%
    03:00 +35°C° 0 mm 2 mps 737 mmHg 43%
    04:00 +35°C° 0 mm 2 mps 737 mmHg 43%
    05:00 +36°C° 0 mm 2 mps 737 mmHg 40%
    06:00 +37°C° 0 mm 2 mps 737 mmHg 36%
    07:00 +38°C° 0 mm 2 mps 737 mmHg 33%
    08:00 +40°C° 0 mm 2 mps 738 mmHg 28%
    09:00 +44°C° 0 mm 3 mps 738 mmHg 23%
    10:00 +46°C° 0 mm 3 mps 738 mmHg 18%
    11:00 +47°C° 0 mm 3 mps 738 mmHg 17%
    12:00 +48°C° 0 mm 3 mps 738 mmHg 15%
    13:00 +50°C° 0 mm 3 mps 737 mmHg 14%
    14:00 +49°C° 0 mm 2 mps 737 mmHg 15%
    15:00 +49°C° 0 mm 2 mps 737 mmHg 15%
    16:00 +49°C° 0 mm 2 mps 736 mmHg 16%
    17:00 +48°C° 0 mm 2 mps 737 mmHg 20%
    18:00 +46°C° 0 mm 2 mps 737 mmHg 23%
    19:00 +43°C° 0 mm 2 mps 737 mmHg 27%
    20:00 +42°C° 0 mm 2 mps 738 mmHg 31%
    21:00 +41°C° 0 mm 2 mps 738 mmHg 35%
    22:00 +39°C° 0 mm 2 mps 739 mmHg 39%
    23:00 +39°C° 0 mm 2 mps 738 mmHg 42%

    25 July, Wednesday

    Time Temperature Precipitation Wind Pressure Humidity
    00:00 +38°C° 0 mm 2 mps 738 mmHg 45%
    01:00 +37°C° 0 mm 2 mps 738 mmHg 48%
    02:00 +37°C° 0 mm 2 mps 738 mmHg 49%
    03:00 +35°C° 0 mm 1 mps 738 mmHg 50%
    04:00 +35°C° 0 mm 1 mps 738 mmHg 51%
    05:00 +36°C° 0 mm 1 mps 738 mmHg 49%
    06:00 +37°C° 0 mm 2 mps 739 mmHg 46%
    07:00 +38°C° 0 mm 2 mps 739 mmHg 44%
    08:00 +40°C° 0 mm 3 mps 740 mmHg 38%
    09:00 +43°C° 0 mm 3 mps 740 mmHg 32%
    10:00 +45°C° 0 mm 4 mps 740 mmHg 26%
    11:00 +47°C° 0 mm 4 mps 740 mmHg 24%
    12:00 +48°C° 0 mm 4 mps 740 mmHg 22%
    13:00 +49°C° 0 mm 4 mps 739 mmHg 20%
    14:00 +49°C° 0 mm 4 mps 739 mmHg 21%
    15:00 +49°C° 0 mm 4 mps 739 mmHg 22%
    16:00 +49°C° 0 mm 4 mps 738 mmHg 23%
    17:00 +47°C° 0 mm 3 mps 738 mmHg 27%
    18:00 +45°C° 0 mm 3 mps 739 mmHg 30%
    19:00 +44°C° 0 mm 3 mps 739 mmHg 33%
    20:00 +42°C° 0 mm 2 mps 739 mmHg 37%
    21:00 +41°C° 0 mm 2 mps 739 mmHg 40%
    22:00 +40°C° 0 mm 2 mps 740 mmHg 44%
    23:00 +39°C° 0 mm 2 mps 739 mmHg 45%
    Show more